CAPE
0 0 0 0 0 0 0 0 0 0 0 0 0 0 0 0 0 0 0 0 0 0 0 0 0 0 0 0 0 0 0 0 2 0 15 0 18 93 0 0 0 0 0 193 1403
0 0 0 0 0 0 0 0 0 0 0 0 0 0 0 0 0 0 0 0 0 0 0 0 0 0 0 0 0 0 0 1 0 0 0 1 57 0 3 0 0 0 0 603 967
0 0 0 0 0 0 0 0 0 0 0 0 0 0 0 0 0 0 0 0 0 0 0 0 0 0 0 0 0 0 0 0 0 0 0 0 0 0 0 0 0 0 1 467 651
0 0 0 0 0 0 0 0 0 0 0 0 0 0 0 0 0 0 0 0 0 0 0 0 0 0 0 0 0 0 0 0 0 0 0 0 0 0 0 0 0 0 47 571 544
0 0 0 0 0 0 0 0 0 0 0 0 0 0 0 0 0 0 0 0 0 0 0 0 0 0 0 0 0 0 0 0 0 0 0 0 0 0 0 0 0 4 361 444 422
0 0 0 0 0 0 0 0 0 0 0 0 0 0 0 0 0 0 0 0 0 0 0 0 0 0 0 0 0 0 0 0 0 0 0 0 0 0 0 0 0 0 126 255 315
0 0 0 0 0 0 0 0 0 0 0 0 0 0 0 0 0 0 0 0 0 0 0 0 0 0 0 0 0 0 0 0 0 0 0 0 0 0 0 0 0 0 9 176 248
0 0 0 0 0 0 0 0 0 0 0 0 0 0 0 0 0 0 0 0 0 0 0 0 0 0 0 0 0 0 0 0 0 0 0 0 0 0 0 0 0 0 0 20 41
0 0 0 0 0 0 0 0 0 0 0 0 0 0 0 0 0 0 0 0 0 0 0 0 0 0 0 0 0 0 0 0 0 0 0 0 0 0 0 0 0 0 0 0 0
0 0 0 0 0 0 0 0 0 0 0 0 0 0 0 0 0 0 0 0 0 0 0 0 0 0 0 0 0 0 0 0 0 0 0 0 0 0 0 0 0 0 0 0 0
0 0 0 0 0 0 0 0 0 0 0 0 0 0 0 0 0 0 0 0 0 0 0 0 0 0 0 0 0 0 0 0 0 0 0 0 0 0 0 0 0 0 0 0 0
0 0 0 0 0 0 0 0 0 0 0 0 0 0 0 0 0 0 0 0 0 0 0 0 0 0 0 0 0 0 0 0 0 0 0 0 0 0 0 0 0 0 0 0 0
0 0 0 0 0 0 0 0 0 0 0 0 0 0 0 0 0 0 0 0 0 0 0 0 0 0 0 0 0 0 0 0 0 0 0 0 0 0 0 0 0 0 0 0 0
0 0 0 0 0 0 0 0 0 0 0 0 0 0 0 0 0 0 0 0 0 0 0 0 0 0 0 0 0 0 0 0 0 0 0 0 0 0 0 0 0 0 0 0 1
0 0 0 0 0 0 0 0 0 0 0 0 0 0 0 0 0 0 0 0 0 0 0 0 0 0 0 0 0 0 0 0 0 0 0 0 0 0 0 0 0 0 0 0 0
0 0 0 0 0 0 0 0 0 0 0 0 0 0 0 0 0 0 0 0 0 0 0 0 0 0 0 0 0 0 0 0 0 0 0 0 0 0 0 0 0 0 0 0 0
0 0 0 0 0 0 0 0 0 0 0 0 0 0 0 0 0 0 0 0 0 0 0 0 0 0 0 0 0 0 0 0 2 3 0 0 0 0 0 0 0 0 0 0 0
0 0 0 0 0 0 0 0 0 0 0 0 0 0 0 0 0 0 0 0 0 0 0 0 3 0 0 0 0 0 0 0 0 0 0 0 0 0 0 0 0 0 0 0 0
0 0 0 0 0 0 0 0 0 0 0 0 0 0 0 0 0 0 0 0 0 0 0 0 1 0 0 0 0 0 0 0 0 0 0 0 0 0 0 0 0 0 0 0 0
0 0 0 0 0 0 0 0 0 0 0 0 0 0 0 0 0 0 0 0 0 0 0 0 0 0 0 0 0 0 0 0 1 0 0 0 0 0 0 0 0 0 0 0 0
0 0 0 0 0 0 0 0 0 0 0 0 0 0 0 0 0 0 0 0 0 0 0 0 0 2 0 0 0 0 0 0 0 0 0 0 0 0 0 0 0 0 0 0 0
0 0 0 0 0 0 0 0 0 0 0 0 0 0 0 0 0 0 0 0 0 0 0 0 0 10 0 0 0 0 0 0 0 0 0 0 0 0 0 0 0 0 0 0 0
0 0 0 0 0 0 0 0 0 0 0 0 0 0 0 0 0 0 0 0 0 0 0 0 0 6 2 0 0 0 0 0 0 0 0 0 0 0 0 0 0 0 2 23 30
0 0 0 0 0 0 0 0 0 0 0 0 0 0 0 0 0 0 0 0 0 0 0 0 0 0 0 7 0 0 0 0 0 0 0 0 0 0 1 3 13 28 37 27 33
0 0 0 0 0 0 0 0 0 0 0 0 0 0 0 0 0 0 0 0 0 0 0 0 0 1 1 0 0 0 0 0 0 0 0 0 0 1 7 4 2 4 16 24 28
0 0 0 0 0 0 0 0 0 0 0 0 0 0 0 0 0 0 0 0 0 0 0 0 0 0 0 0 0 0 0 0 0 0 0 0 0 12 8 20 20 18 15 22 29
0 0 0 0 0 0 0 0 0 0 0 0 0 0 0 0 0 0 0 0 0 0 0 0 0 5 1 0 0 0 0 0 0 0 0 1 18 9 26 24 19 17 19 23 21
CIN
-0 -0 -0 -0 -0 -0 -0 -0 -0 -0 -0 -0 -0 -0 -0 -0 -0 -0 -0 -0 -0 -0 -0 -0 -0 -0 -0 -0 -0 -0 -0 -0 -0 -0 -4 -0 -33 -51 -0 -0 -0 -0 -0 -97 -73
-0 -0 -0 -0 -0 -0 -0 -0 -0 -0 -0 -0 -0 -0 -0 -0 -0 -0 -0 -0 -0 -0 -0 -0 -0 -0 -0 -0 -0 -0 -0 -0 -0 -0 -0 -8 -20 -0 -29 -0 -0 -0 -0 -73 -70
-0 -0 -0 -0 -0 -0 -0 -0 -0 -0 -0 -0 -0 -0 -0 -0 -0 -0 -0 -0 -0 -0 -0 -0 -0 -0 -0 -0 -0 -0 -0 -0 -0 -0 -0 -0 -0 -0 -0 -0 -0 -0 -55 -51 -51
-0 -0 -0 -0 -0 -0 -0 -0 -0 -0 -0 -0 -0 -0 -0 -0 -0 -0 -0 -0 -0 -0 -0 -0 -0 -0 -0 -0 -0 -0 -0 -0 -0 -0 -0 -0 -0 -0 -0 -0 -0 -0 -134 -52 -57
-0 -0 -0 -0 -0 -0 -0 -0 -0 -0 -0 -0 -0 -0 -0 -0 -0 -0 -0 -0 -0 -0 -0 -0 -0 -0 -0 -0 -0 -0 -0 -0 -0 -0 -0 -0 -0 -0 -0 -0 -0 -8 -72 -56 -92
-0 -0 -0 -0 -0 -0 -0 -0 -0 -0 -0 -0 -0 -0 -0 -0 -0 -0 -0 -0 -0 -0 -0 -0 -0 -0 -0 -0 -0 -0 -0 -0 -0 -0 -0 -0 -0 -0 -0 -0 -0 -0 -136 -117 -123
-0 -0 -0 -0 -0 -0 -0 -0 -0 -0 -0 -0 -0 -0 -0 -0 -0 -0 -0 -0 -0 -0 -0 -0 -0 -0 -0 -0 -0 -0 -0 -0 -0 -0 -0 -0 -0 -0 -0 -0 -0 -0 -56 -155 -149
-0 -0 -0 -0 -0 -0 -0 -0 -0 -0 -0 -0 -0 -0 -0 -0 -0 -0 -0 -0 -0 -0 -0 -0 -0 -0 -0 -0 -0 -0 -0 -0 -0 -0 -0 -0 -0 -0 -0 -0 -0 -0 -0 -154 -204
-0 -0 -0 -0 -0 -0 -0 -0 -0 -0 -0 -0 -0 -0 -0 -0 -0 -0 -0 -0 -0 -0 -0 -0 -0 -0 -0 -0 -0 -0 -0 -0 -0 -0 -0 -0 -0 -0 -0 -0 -0 -0 -0 -0 -0
-0 -0 -0 -0 -0 -0 -0 -0 -0 -0 -0 -0 -0 -0 -0 -0 -0 -0 -0 -0 -0 -0 -0 -0 -0 -0 -0 -0 -0 -0 -0 -0 -0 -0 -0 -0 -0 -0 -0 -0 -0 -0 -0 -0 -0
-0 -0 -0 -0 -0 -0 -0 -0 -0 -0 -0 -0 -0 -0 -0 -0 -0 -0 -0 -0 -0 -0 -0 -0 -0 -0 -0 -0 -0 -0 -0 -0 -0 -0 -0 -0 -0 -0 -0 -0 -0 -0 -0 -0 -0
-0 -0 -0 -0 -0 -0 -0 -0 -0 -0 -0 -0 -0 -0 -0 -0 -0 -0 -0 -0 -0 -0 -0 -0 -0 -0 -0 -0 -0 -0 -0 -0 -0 -0 -0 -0 -0 -0 -0 -0 -0 -0 -0 -0 -0
-0 -0 -0 -0 -0 -0 -0 -0 -0 -0 -0 -0 -0 -0 -0 -0 -0 -0 -0 -0 -0 -0 -0 -0 -0 -0 -0 -0 -0 -0 -0 -0 -0 -0 -0 -0 -0 -0 -0 -0 -0 -0 -0 -0 -0
-0 -0 -0 -0 -0 -0 -0 -0 -0 -0 -0 -0 -0 -0 -0 -0 -0 -0 -0 -0 -0 -0 -0 -0 -0 -0 -0 -0 -0 -0 -0 -0 -0 -0 -0 -0 -0 -0 -0 -0 -0 -0 -0 -0 -25
-0 -0 -0 -0 -0 -0 -0 -0 -0 -0 -0 -0 -0 -0 -0 -0 -0 -0 -0 -0 -0 -0 -0 -0 -0 -0 -0 -0 -0 -0 -0 -0 -0 -0 -0 -0 -0 -0 -0 -0 -0 -0 -0 -0 -0
-0 -0 -0 -0 -0 -0 -0 -0 -0 -0 -0 -0 -0 -0 -0 -0 -0 -0 -0 -0 -0 -0 -0 -0 -0 -0 -0 -0 -0 -0 -0 -0 -0 -0 -0 -0 -0 -0 -0 -0 -0 -0 -0 -0 -0
-0 -0 -0 -0 -0 -0 -0 -0 -0 -0 -0 -0 -0 -0 -0 -0 -0 -0 -0 -0 -0 -0 -0 -0 -0 -0 -0 -0 -0 -0 -0 -0 -1 -4 -0 -0 -0 -0 -0 -0 -0 -0 -0 -0 -0
-0 -0 -0 -0 -0 -0 -0 -0 -0 -0 -0 -0 -0 -0 -0 -0 -0 -0 -0 -0 -0 -0 -0 -0 -4 -0 -0 -0 -0 -0 -0 -0 -0 -0 -0 -0 -0 -0 -0 -0 -0 -0 -0 -0 -0
-0 -0 -0 -0 -0 -0 -0 -0 -0 -0 -0 -0 -0 -0 -0 -0 -0 -0 -0 -0 -0 -0 -0 -0 -0 -0 -0 -0 -0 -0 -0 -0 -0 -0 -0 -0 -0 -0 -0 -0 -0 -0 -0 -0 -0
-0 -0 -0 -0 -0 -0 -0 -0 -0 -0 -0 -0 -0 -0 -0 -0 -0 -0 -0 -0 -0 -0 -0 -0 -1 -0 -0 -0 -0 -0 -0 -0 -2 -0 -0 -0 -0 -0 -0 -0 -0 -0 -0 -1 -0
-0 -0 -0 -0 -0 -0 -0 -0 -0 -0 -0 -0 -0 -0 -0 -0 -0 -0 -0 -0 -0 -0 -0 -0 -0 -2 -0 -0 -0 -0 -0 -0 -0 -0 -0 -0 -0 -0 -0 -0 -0 -0 -0 -0 -1
-0 -0 -0 -0 -0 -0 -0 -0 -0 -0 -0 -0 -0 -0 -0 -0 -0 -0 -0 -0 -0 -0 -0 -0 -0 -2 -0 -0 -0 -0 -0 -0 -0 -0 -0 -0 -0 -0 -0 -0 -0 -0 -0 -0 -0
-0 -0 -0 -0 -0 -0 -0 -0 -0 -0 -0 -0 -0 -0 -0 -0 -0 -0 -0 -0 -0 -0 -0 -0 -0 -1 -0 -0 -0 -0 -0 -0 -0 -0 -0 -0 -0 -0 -0 -0 -0 -0 -0 -3 -2
-0 -0 -0 -0 -0 -0 -0 -0 -0 -0 -0 -0 -0 -0 -0 -0 -0 -0 -0 -0 -0 -0 -0 -0 -0 -0 -0 -3 -0 -0 -0 -0 -0 -0 -0 -0 -0 -0 -3 -3 -2 -1 -2 -3 -4
-0 -0 -0 -0 -0 -0 -0 -0 -0 -0 -0 -0 -0 -0 -0 -0 -0 -0 -0 -0 -0 -0 -0 -0 -0 -0 -1 -0 -0 -0 -0 -0 -0 -0 -0 -0 -0 -3 -3 -1 -1 -2 -3 -4 -5
-0 -0 -0 -0 -0 -0 -0 -0 -0 -0 -0 -0 -0 -0 -0 -0 -0 -0 -0 -0 -0 -0 -0 -0 -0 -0 -0 -0 -0 -0 -0 -0 -0 -0 -0 -0 -0 -1 -1 -2 -1 -2 -2 -3 -3
-0 -0 -0 -0 -0 -0 -0 -0 -0 -0 -0 -0 -0 -0 -0 -0 -0 -0 -0 -0 -0 -0 -0 -0 -0 -1 -3 -0 -0 -0 -0 -0 -0 -0 -0 -1 -3 -1 -2 -3 -2 -2 -2 -1 -2
Wind_Speed
14 14 15 15 16 16 16 16 16 17 17 17 17 18 19 19 16 12 12 13 14 14 17 17 18 19 19 15 15 15 12 9 7 7 6 4 3 8 11 10 11 14 15 13 13
14 14 14 14 15 15 16 16 16 17 17 17 17 18 19 17 13 13 14 14 15 16 18 15 14 17 15 14 13 16 13 7 10 7 7 4 3 5 6 8 11 12 12 11 11
13 13 14 14 15 15 16 16 16 17 17 17 18 19 19 15 12 13 15 15 16 16 16 16 11 15 14 15 13 12 10 10 10 8 5 6 5 6 6 6 10 9 10 11 11
12 13 14 14 15 15 16 16 17 17 17 18 19 20 19 12 14 13 15 15 15 16 14 11 12 12 11 11 11 11 11 12 12 12 12 10 7 8 11 16 17 14 9 9 8
12 13 14 14 15 15 16 17 17 17 18 18 18 19 15 10 11 13 14 13 15 14 14 12 9 9 8 9 10 10 10 11 10 9 9 7 11 8 13 18 14 8 8 8 8
12 13 14 14 15 15 16 17 17 17 17 17 17 17 14 10 12 13 15 13 14 14 14 14 12 11 9 8 8 9 9 9 10 9 9 5 6 8 18 21 9 5 6 7 7
13 13 14 14 15 16 16 17 18 18 17 17 16 16 13 13 12 16 14 15 14 15 14 14 14 12 9 9 9 8 7 7 10 9 8 7 7 13 18 16 6 4 6 7 6
14 15 15 15 16 16 17 18 18 18 18 17 17 15 15 13 14 15 14 13 13 14 16 15 15 11 11 9 8 6 8 5 12 7 9 5 5 12 18 16 7 4 5 5 6
14 14 15 15 16 18 19 19 19 17 16 16 15 16 14 14 13 15 14 12 15 13 14 13 13 12 8 5 7 7 8 7 12 10 8 2 10 16 19 17 8 5 6 5 8
14 14 14 14 15 16 16 14 13 13 13 14 14 13 14 14 15 16 14 14 13 13 11 11 11 7 6 7 12 11 8 10 10 12 10 10 15 19 22 20 12 9 7 6 6
15 14 14 15 14 14 14 15 14 14 12 15 15 15 14 16 15 14 14 13 13 12 11 11 8 6 7 13 19 15 13 9 12 14 15 17 19 22 21 18 13 9 5 4 5
17 16 16 16 15 14 15 15 16 16 14 14 14 15 13 15 14 15 15 13 13 13 11 9 12 14 13 12 11 11 11 13 15 15 19 18 20 20 20 17 13 8 5 5 6
19 17 17 16 16 15 16 17 18 14 14 15 14 13 14 13 15 17 17 14 15 13 12 15 12 11 9 8 9 13 17 16 21 17 20 19 18 17 17 15 12 8 6 5 4
20 18 18 17 14 17 17 20 17 13 12 15 14 14 13 14 14 16 18 16 13 15 15 15 11 9 9 11 16 15 15 17 18 20 26 16 27 15 15 13 10 7 6 6 7
20 18 17 16 16 17 19 19 14 13 15 14 14 14 13 14 15 15 17 17 17 16 14 14 11 9 11 15 17 18 16 19 21 26 27 17 20 15 13 13 10 7 6 8 8
21 18 16 14 15 18 20 16 14 12 15 12 13 14 12 12 14 15 15 16 16 16 16 15 14 15 17 16 17 14 18 20 23 22 21 17 21 17 13 14 10 7 7 8 9
20 17 15 15 17 21 19 13 13 16 12 13 13 14 12 13 13 15 15 14 16 16 13 16 16 14 14 12 14 17 20 27 22 14 24 18 23 24 20 20 12 9 8 9 10
19 15 16 17 20 20 17 13 14 14 14 14 15 14 12 16 13 16 15 14 15 14 16 17 16 14 16 16 19 20 21 24 31 31 30 17 22 19 21 19 16 16 9 11 13
20 16 17 21 20 20 16 13 15 14 15 15 13 12 13 14 15 16 17 19 19 17 15 17 17 14 15 14 17 15 19 22 29 23 26 22 21 18 17 18 17 16 15 15 16
18 16 19 24 21 19 15 16 15 15 17 15 15 16 15 16 14 16 16 18 19 17 15 16 19 13 14 15 17 19 20 23 20 26 30 22 24 24 21 21 19 17 19 19 18
18 18 21 22 19 17 17 16 14 16 16 17 16 15 16 17 16 17 16 17 19 18 16 15 15 15 14 17 23 20 21 21 24 23 29 31 23 21 23 23 25 26 26 24 22
20 19 22 21 19 18 17 16 16 16 16 16 16 16 16 16 16 15 16 18 19 17 17 16 18 18 19 20 19 21 23 21 24 23 24 28 30 21 21 25 25 25 24 24 25
22 21 20 20 20 17 17 16 16 16 16 17 16 15 15 17 17 14 15 17 18 16 17 16 17 20 17 17 17 18 17 19 21 22 26 28 27 20 25 27 25 26 26 27 28
21 21 19 17 17 19 19 18 17 17 17 17 17 15 15 16 14 15 14 16 16 16 17 17 17 21 23 27 22 22 20 19 20 24 24 24 28 27 31 28 26 27 29 32 33
20 19 19 20 18 20 19 18 18 18 17 16 16 15 16 17 16 15 16 15 14 14 15 16 19 20 22 23 23 24 24 19 18 19 23 25 27 29 29 29 29 31 34 36 37
21 20 19 20 20 21 19 18 20 19 18 17 17 15 15 17 18 20 18 18 18 15 15 15 18 21 24 21 24 25 21 19 20 22 22 25 26 24 27 27 32 36 39 38 39
19 19 20 19 21 22 20 21 20 21 17 18 20 16 15 17 17 18 19 18 17 17 16 16 18 21 26 21 24 23 20 17 18 19 22 25 28 30 30 36 37 39 36 36 41
Wind_Direction
243 235 250 249 246 246 249 254 261 266 267 259 258 260 263 264 280 58 11 344 317 329 215 168 143 147 141 122 130 139 143 130 105 118 345 355 17 327 321 358 347 3 2 36 61
249 236 238 247 249 252 257 262 267 266 261 258 260 265 270 274 68 20 348 343 304 287 211 163 91 108 101 104 119 155 164 111 8 10 354 65 41 15 18 25 353 5 24 41 52
247 242 233 235 245 252 256 258 257 256 259 265 272 275 277 305 58 352 335 313 289 285 274 265 59 110 89 101 83 97 135 54 68 29 21 67 3 16 41 35 14 28 57 62 50
243 233 230 237 241 243 247 250 253 258 264 272 280 284 278 341 333 347 309 305 283 276 301 347 86 95 78 81 65 72 44 57 57 66 87 94 22 13 324 304 308 336 40 45 37
251 239 233 233 237 242 245 247 251 258 264 271 279 282 302 30 2 346 327 331 297 300 317 335 27 52 64 51 58 62 56 40 43 45 75 40 118 58 329 309 331 14 30 37 14
268 255 248 244 242 245 246 245 245 251 257 265 273 276 305 33 349 340 319 350 325 321 329 330 338 343 21 32 24 40 45 40 28 23 348 26 15 347 317 305 336 15 10 4 15
287 272 259 254 252 252 250 247 245 247 248 256 270 290 324 349 334 303 327 326 333 326 332 324 325 345 32 28 28 44 45 29 350 355 4 13 360 323 314 320 345 358 343 352 16
285 282 278 271 263 260 257 250 243 241 241 257 279 307 358 355 315 329 334 348 343 339 317 317 321 344 340 22 22 20 351 355 343 344 338 2 345 333 309 314 341 339 349 1 358
279 268 265 267 274 278 272 259 249 268 298 307 329 328 15 12 16 343 335 351 326 338 333 327 323 330 356 21 354 340 327 332 348 336 335 354 343 327 315 320 326 321 325 336 338
284 266 255 253 264 272 271 313 343 349 346 343 338 25 15 5 348 342 356 350 354 352 357 341 332 332 330 325 321 327 322 323 332 340 331 322 318 322 317 317 318 314 312 320 331
295 275 265 262 267 278 290 343 4 28 32 333 348 347 10 352 20 24 8 9 2 360 353 347 339 318 304 307 308 314 317 326 329 328 322 317 316 318 323 327 325 323 324 323 336
298 280 269 266 266 281 313 342 341 330 3 3 351 336 4 8 25 24 18 14 10 0 4 3 340 331 324 320 319 319 318 316 323 322 314 317 317 323 327 327 331 334 334 329 332
299 283 272 270 277 318 346 347 312 25 17 13 8 10 13 31 10 12 9 14 8 6 -0 336 353 353 352 346 335 320 310 316 312 321 316 317 314 320 329 334 337 342 344 343 350
302 290 282 280 348 338 347 311 324 61 32 17 19 15 29 23 17 19 14 13 18 2 356 350 354 358 348 331 317 318 323 320 320 319 312 325 310 320 328 331 339 341 340 343 347
305 294 296 313 320 329 315 296 19 28 346 17 16 22 26 11 20 25 22 20 7 358 355 350 358 357 338 325 319 319 325 320 318 312 309 315 316 324 334 328 329 333 332 334 341
310 308 322 340 339 328 304 341 14 4 345 15 16 14 31 25 19 21 20 18 16 7 356 347 346 334 326 326 321 334 323 320 317 314 314 318 317 322 329 327 326 326 324 328 336
311 322 335 334 329 304 313 6 352 338 14 10 6 7 14 6 11 4 5 6 358 358 2 351 347 353 337 336 329 324 323 311 313 326 314 329 319 316 329 336 331 322 321 328 334
304 326 346 338 315 311 328 355 338 353 360 8 1 5 1 351 358 352 354 352 356 351 341 338 341 349 346 332 325 325 324 313 295 295 302 332 324 329 335 338 340 338 330 331 329
299 333 334 310 313 310 328 339 340 349 349 353 6 0 1 1 352 349 341 332 336 341 336 336 333 351 347 347 338 344 330 328 309 317 316 321 328 333 343 343 345 343 339 331 330
317 321 323 309 324 324 329 328 338 339 339 347 344 348 347 354 355 349 345 338 332 334 337 339 324 339 340 339 340 329 333 324 328 318 311 325 324 323 341 339 342 343 339 333 333
319 313 322 318 330 323 319 327 336 338 339 339 343 345 345 347 351 348 349 343 333 330 333 334 331 336 337 326 316 326 327 328 322 318 314 316 327 343 339 343 339 336 338 339 336
315 306 321 321 313 317 318 323 328 333 339 341 342 344 343 349 352 353 350 340 341 337 328 331 327 321 323 327 329 325 322 323 319 322 322 319 318 344 347 342 341 340 343 342 340
313 309 323 317 305 313 320 322 326 329 333 335 336 342 346 343 347 353 351 350 345 347 335 336 328 318 328 333 334 326 333 333 330 327 318 317 323 347 344 340 343 342 341 339 337
314 306 320 330 322 312 313 317 319 329 330 331 332 340 340 340 350 351 352 351 350 348 343 337 325 315 313 316 323 323 326 330 329 322 323 323 323 332 337 340 344 343 340 338 336
320 312 316 309 315 314 314 317 316 321 328 333 333 329 332 334 341 344 344 346 350 349 346 339 325 322 319 320 320 319 321 324 325 326 324 328 328 332 340 341 343 341 338 337 336
312 312 316 312 312 310 312 313 312 317 321 325 323 331 330 329 332 334 339 336 335 348 342 343 329 325 320 323 320 319 322 324 324 326 327 328 331 347 345 345 341 338 337 336 337
315 316 310 310 310 307 308 309 312 316 321 319 318 322 322 330 341 341 337 336 338 336 336 336 331 327 318 329 327 324 329 335 338 339 336 333 337 340 341 339 339 337 339 341 338